Location: Ponte Samoggia
(44.5667°N, 11.1333°E)
Time: 16:52:35
(UTC+00:00)

Cosmos 1544 Rocket - Pass Details

Date: 26 May 2022
Orbit: 603 x 631 km, 82.5° (Epoch: 06 July)

Event Time Altitude Azimuth Distance (km) Brightness Sun altitude
Rises 01:04:45 0° 351° (N) 2,917 7.9 -19.5°
Reaches altitude 10° 01:07:00 10° 352° (N) 2,002 6.9 -19.3°
Maximum altitude 01:11:27 89° 84° (E) 625 3.5 -18.9°
Enters shadow 01:13:17 35° 172° (S) 1,002 4.2 -18.8°
